TimeMDT,TemperatureF,Dew PointF,Humidity,Sea Level PressureIn,VisibilityMPH,Wind Direction,Wind SpeedMPH,Gust SpeedMPH,PrecipitationIn,Events,Conditions,WindDirDegrees,DateUTC
12:53 AM,66.0,45.0,47,29.88,10.0,West,9.2,-,N/A,,Mostly Cloudy,270,2013-07-07 06:53:00
1:53 AM,64.9,45.0,48,29.87,10.0,West,6.9,-,N/A,,Partly Cloudy,280,2013-07-07 07:53:00
2:05 AM,64.4,44.6,49,29.93,10.0,West,8.1,-,N/A,Thunderstorm,Scattered Clouds,260,2013-07-07 08:05:00
2:20 AM,64.4,46.4,52,29.93,10.0,West,4.6,-,N/A,,Mostly Cloudy,270,2013-07-07 08:20:00
2:53 AM,64.0,46.0,52,29.89,10.0,West,5.8,-,N/A,,Partly Cloudy,280,2013-07-07 08:53:00
3:53 AM,61.0,46.9,60,29.89,10.0,WNW,5.8,-,N/A,,Clear,290,2013-07-07 09:53:00
4:53 AM,57.9,46.9,67,29.91,10.0,WNW,5.8,-,N/A,,Clear,290,2013-07-07 10:53:00
5:53 AM,55.9,48.0,75,29.93,10.0,WNW,5.8,-,N/A,,Partly Cloudy,290,2013-07-07 11:53:00
6:53 AM,57.9,48.9,72,29.94,10.0,WNW,5.8,-,N/A,,Partly Cloudy,300,2013-07-07 12:53:00
7:53 AM,61.0,48.9,64,29.95,10.0,NNW,8.1,-,N/A,,Clear,340,2013-07-07 13:53:00
8:53 AM,63.0,50.0,63,29.96,10.0,Calm,Calm,-,N/A,,Clear,0,2013-07-07 14:53:00
9:53 AM,66.0,50.0,56,29.94,10.0,North,4.6,-,N/A,,Clear,350,2013-07-07 15:53:00
10:53 AM,69.1,51.1,53,29.93,10.0,Variable,5.8,-,N/A,,Clear,0,2013-07-07 16:53:00
11:53 AM,72.0,52.0,49,29.91,10.0,NNE,4.6,-,N/A,,Clear,30,2013-07-07 17:53:00
12:53 PM,75.0,50.0,41,29.88,10.0,NNE,6.9,-,N/A,,Clear,30,2013-07-07 18:53:00
1:53 PM,80.1,50.0,35,29.84,10.0,ENE,5.8,-,N/A,,Clear,60,2013-07-07 19:53:00
2:53 PM,84.0,48.0,28,29.81,10.0,Calm,Calm,-,N/A,,Clear,0,2013-07-07 20:53:00
3:53 PM,88.0,44.1,22,29.78,10.0,Variable,3.5,-,N/A,,Clear,0,2013-07-07 21:53:00
4:53 PM,88.0,43.0,21,29.78,10.0,Variable,4.6,-,N/A,,Partly Cloudy,0,2013-07-07 22:53:00
5:53 PM,88.0,42.1,20,29.77,10.0,NE,8.1,-,N/A,,Partly Cloudy,40,2013-07-07 23:53:00
6:53 PM,86.0,39.9,20,29.77,10.0,NE,8.1,-,N/A,,Partly Cloudy,50,2013-07-08 00:53:00
7:53 PM,82.9,45.0,26,29.78,10.0,ENE,9.2,-,N/A,,Overcast,70,2013-07-08 01:53:00
8:53 PM,78.1,46.9,33,29.81,10.0,ENE,13.8,-,N/A,,Mostly Cloudy,70,2013-07-08 02:53:00
9:53 PM,72.0,48.9,44,29.86,10.0,Calm,Calm,-,N/A,,Clear,0,2013-07-08 03:53:00
10:53 PM,69.1,48.9,49,29.88,10.0,West,5.8,-,N/A,,Clear,270,2013-07-08 04:53:00
11:53 PM,70.0,48.0,46,29.88,10.0,WSW,8.1,-,N/A,,Clear,250,2013-07-08 05:53:00